Home > Time Zones > World Clock > Weather > Spain > Ceuta > Past weeks

Flag for Spain Weather past 2 weeks in Ceuta, Ceuta, Spain

Now
59 °F

Sunny.


Feels Like: 55 °F
Forecast: 58 / 61 °F
Wind: 25 mph from East

Location: Gibraltar Airport

Current Time: Mar 6, 2015 at 1:40:02 PM

Latest Report: Mar 6, 2015 at 12:50 PM


Visibility: 10 mi

Pressure: 30.42 "Hg

Humidity: 55%

Dew point: 43 °F

Location of CeutaLocation

Historic Weather in Ceuta — Graph

°F

Ceuta temperature yesterday

Maximum temperature yesterday: 61 °F (at 10:50 AM)
Minimum temperature yesterday: 57 °F (at 1:50 AM)
Average temperature yesterday: 59 °F

Past Weeks' High & Low Weather Summary

 TemperatureHumidityPressure
High68 °F (Mar 2, 2:50 PM)100% (Mar 4, 8:50 PM)30.48 "Hg (Mar 4, 8:50 PM)
Low50 °F (Feb 20, 6:50 AM)34% (Feb 25, 12:50 PM)29.86 "Hg (Feb 21, 3:50 PM)
Average58 °F72%30.24 "Hg
* Reported Feb 19 11:50 AM — Mar 6 11:50 AM, Ceuta, Weather by CustomWeather, © 2015

Note: Actual official high and low records may vary slightly from our data, if they occured in-between our weather recording intervals... More about our weather records

Advertising

Ceuta weather history for previous 24 hours

 ConditionsComfort  
Time TempWeatherWind HumidityBarometerVisibility
11:50 AM
Fri, Mar 6
59 °FSunny.25 mph48%30.42 "Hg10 mi
10:50 AM57 °FPassing clouds.25 mph55%30.42 "HgN/A
9:50 AM57 °FSunny.24 mph55%30.39 "Hg10 mi
8:50 AM55 °FSunny.24 mph59%30.39 "Hg10 mi
7:50 AM55 °FSunny.24 mph63%30.36 "Hg10 mi
6:50 AM55 °FClear.25 mph63%30.33 "Hg10 mi
5:50 AM55 °FClear.32 mph59%30.33 "HgN/A
4:50 AM55 °FClear.33 mph59%30.33 "HgN/A
3:50 AM55 °FClear.33 mph59%30.33 "HgN/A
2:50 AM55 °FClear.33 mph55%30.36 "HgN/A
1:50 AM55 °FClear.36 mph55%30.36 "HgN/A
12:50 AM55 °FClear.35 mph55%30.36 "HgN/A
11:50 PM
Thu, Mar 5
57 °FClear.36 mph55%30.36 "HgN/A
10:50 PM57 °FClear.30 mph59%30.36 "Hg10 mi
9:50 PM57 °FClear.28 mph51%30.36 "Hg10 mi
8:50 PM57 °FClear.28 mph48%30.36 "Hg10 mi
7:50 PM57 °FClear.29 mph48%30.36 "Hg10 mi
6:50 PM57 °FSunny.30 mph55%30.33 "Hg10 mi
5:50 PM59 °FScattered clouds.36 mph51%30.33 "HgN/A
4:50 PM59 °FPartly sunny.30 mph55%30.33 "HgN/A
3:50 PM59 °FPartly sunny.30 mph59%30.36 "HgN/A
2:50 PM59 °FBroken clouds.30 mph55%30.36 "HgN/A
1:50 PM59 °FBroken clouds.30 mph59%30.39 "HgN/A
Weather by CustomWeather, © 2015

See weather overviewHow to use our weather pages